This demonstration page uses our WeatherBlox Daily Observations layout. Learn more.

Left ArrowRight Arrow

38.89511, -77.03637

Hourly Observations for May 22, 2022

Temp ( °F °C ) Dew Point ( °F °C ) Humidity (%) Winds ( mph kmh ) Pressure ( in mb ) Visibility ( mi km ) Precip ( " mm )
12:52 am 00:52 Partly Cloudy 80 26.7 66 18.9 62 62 SSW 9 15 30.06 1018 10 16 0.00 0.00
1:52 am 01:52 Mostly Cloudy 80 26.7 66 18.9 62 62 WSW 8 13 30.02 1017 10 16 0.00 0.00
2:52 am 02:52 Mostly Cloudy 77 25 68 20 74 74 S 8 13 30.04 1017 10 16 0.00 0.00
3:52 am 03:52 Mostly Cloudy 75 23.9 67 19.4 76 76 S 10 17 30.04 1017 10 16 0.00 0.00
4:52 am 04:52 Mostly Cloudy 75 23.9 67 19.4 76 76 S 10 17 30.04 1017 10 16 0.00 0.00
5:52 am 05:52 Mostly Cloudy 74 23.3 66 18.9 76 76 S 8 13 30.04 1017 10 16 0.00 0.00
6:52 am 06:52 Partly Cloudy 74 23.3 65 18.3 74 74 S 10 17 30.06 1018 10 16 0.00 0.00
7:52 am 07:52 Partly Cloudy 74 23.3 64 17.8 71 71 SSW 9 15 30.08 1019 10 16 0.00 0.00
8:52 am 08:52 Mostly Cloudy 75 23.9 65 18.3 71 71 SSW 12 19 30.08 1019 10 16 0.00 0.00
8:53 am 08:53 Mostly Cloudy 75 23.9 65 18.3 71 71 SSW 10 17 30.08 1019 10 16 0.00 0.00
9:52 am 09:52 Mostly Cloudy 78 25.6 66 18.9 67 67 S 9 15 30.07 1018 10 16 0.00 0.00
10:52 am 10:52 Partly Cloudy 79 26.1 68 20 69 69 S 10 17 30.06 1018 10 16 0.00 0.00
11:52 am 11:52 Sunny 81 27.2 68 20 65 65 S 15 24 30.06 1018 10 16 0.00 0.00
11:56 am 11:56 Partly Cloudy 81 27.2 68 20 65 65 S 15 24 30.06 1018 10 16 0.00 0.00
12:52 pm 12:52 Mostly Sunny 82 27.8 69 20.6 65 65 SSE 12 19 30.04 1017 10 16 0.00 0.00
1:52 pm 13:52 Mostly Sunny 85 29.4 70 21.1 61 61 S 13 20 30.01 1016 10 16 0.00 0.00
2:52 pm 14:52 Mostly Sunny 86 30 70 21.1 59 59 S 16 26 30.00 1016 10 16 0.00 0.00
3:52 pm 15:52 Partly Cloudy 88 31.1 70 21.1 55 55 S 12 19 29.98 1015 10 16 0.00 0.00
4:52 pm 16:52 Partly Cloudy 86 30 68 20 55 55 S 12 19 29.96 1015 10 16 0.00 0.00
5:16 pm 17:16 Partly Cloudy with Nearby Thunderstorms 86 30 69 20.6 57 57 S 8 13 29.97 1015 10 16 0.00 0.00
5:20 pm 17:20 Partly Cloudy with Thunderstorms 86 30 69 20.6 57 57 S 8 13 29.97 1015 10 16 0.00 0.00
5:52 pm 17:52 Windy with Storms Likely 79 26.1 66 18.9 65 65 NNW 23 37 29.99 1016 10 16 0.00 0.00
6:00 pm 18:00 Windy with Storms Likely 73 22.8 65 18.3 76 76 NW 37 59 29.99 1016 3 4 0.00 0.00
6:02 pm 18:02 Cloudy with Thunderstorms 72 22.2 65 18.3 79 79 NW 47 76 30.03 1017 1 1 0.01 0.25
6:07 pm 18:07 Windy with Storms Likely 69 20.6 65 18.3 87 87 NNW 31 50 30.04 1017 0 0 0.19 4.83
6:12 pm 18:12 Cloudy with Strong Thunderstorms 72 22.2 65 18.3 79 79 NNE 12 19 30.02 1017 0 0 0.47 11.94
6:18 pm 18:18 Cloudy with Strong Thunderstorms 72 22.2 65 18.3 79 79 NE 21 33 29.98 1015 0 0 0.93 23.62
6:22 pm 18:22 Cloudy with Thunderstorms 78 25.6 65 18.3 64 64 NE 10 17 29.98 1015 1 1 1.00 25.40
6:25 pm 18:25 Cloudy with Thunderstorms 77 25 66 18.9 69 69 E 16 26 29.98 1015 3 4 1.00 25.40
6:27 pm 18:27 Mostly Cloudy with Thunderstorms 75 23.9 67 19.4 76 76 E 13 20 29.98 1015 6 10 1.00 25.40
6:32 pm 18:32 Mostly Cloudy with Thunderstorms 75 23.9 67 19.4 76 76 E 13 20 29.99 1016 10 16 1.00 25.40
6:34 pm 18:34 Mostly Cloudy with Nearby Thunderstorms 75 23.9 67 19.4 76 76 ENE 12 19 29.99 1016 10 16 1.00 25.40
6:52 pm 18:52 Mostly Cloudy 76 24.4 66 18.9 72 72 E 10 17 29.99 1016 10 16 1.00 25.40
7:21 pm 19:21 Mostly Cloudy with Nearby Thunderstorms 76 24.4 66 18.9 72 72 S 5 7 29.98 1015 10 16 0.00 0.00
7:34 pm 19:34 Mostly Cloudy with Thunderstorms 76 24.4 67 19.4 74 74 S 5 7 30.02 1017 10 16 0.00 0.00
7:40 pm 19:40 Mostly Cloudy with Thunderstorms 76 24.4 67 19.4 74 74 W 16 26 30.03 1017 10 16 0.00 0.00
7:49 pm 19:49 Mostly Cloudy with Thunderstorms 72 22 66 19 83 83 WNW 18 30 30.06 1018 3 5 0.00 0.00
8:02 pm 20:02 Cloudy with Thunderstorms 71 21.7 66 18.9 84 84 WNW 17 28 30.08 1019 3 4 0.13 3.30
8:08 pm 20:08 Cloudy with Thunderstorms 71 21.7 66 18.9 84 84 WNW 13 20 30.08 1019 4 6 0.15 3.81
8:37 pm 20:37 Cloudy with Nearby Thunderstorms 72 22.2 67 19.4 84 84 WNW 5 7 30.11 1020 6 10 0.20 5.08
8:50 pm 20:50 Cloudy with Thunderstorms 72 22 66 19 83 83 N 10 17 30.10 1019 4 6 0.23 5.84
8:52 pm 20:52 Cloudy with Thunderstorms 71 21.7 67 19.4 87 87 N 12 19 30.09 1019 4 6 0.24 6.10
9:05 pm 21:05 Cloudy with Nearby Thunderstorms 71 21.7 67 19.4 87 87 NNW 13 20 30.09 1019 4 6 0.07 1.78
9:14 pm 21:14 Cloudy with Rain 71 21.7 67 19.4 87 87 N 17 28 30.08 1019 4 6 0.11 2.79
9:52 pm 21:52 Mostly Cloudy with Light Rain 72 22.2 67 19.4 84 84 NNW 5 7 30.08 1019 10 16 0.20 5.08
10:52 pm 22:52 Cloudy 72 22.2 67 19.4 84 84 SSW 3 6 30.11 1020 10 16 0.00 0.00
11:52 pm 23:52 Mostly Cloudy 72 22.2 67 19.4 84 84 Calm 30.11 1020 10 16 0.00 0.00

Powered by AerisWeather